Find Sunsat-OSCAR-35

NORAD ID: 25636 Int'l Des: 1999-008 Owner: STBO Country: ZA operational
LEORETROGRADE

現在のビュー

3D地球を読み込み中...

Sunsat-OSCAR-35について

説明を読み込み中...

次回通過

Passes for default location (London). Set your location on the main map for personalized predictions.

高度履歴

Loading altitude history...

軌道要素

1 25636U 99008C 26149.23723475 .00000328 00000-0 88120-4 0 9999
2 25636 96.4726 30.4686 0142673 29.0642 331.8402 14.46461352436494
Epoch: May 29, 2026 • Age: 25 hours

現在のステータス

高度 771.1 km
速度 7.46 km/s
衛星直下点 48.18°N, 137.17°W
打ち上げ日 Feb 23, 1999
運用期間 27.2 years
タイプ other

技術仕様

分類 Payload
質量 60.00 kg
乾燥質量 60.00 kg
総質量 60.00 kg
長さ 0.60 m
直径 0.50 m
スパン 2.80 m
形状 Box + Ant
製造者 STBO
バスタイプ Sunsat
フェーズステータス In Orbit
所有者/国 STBO/ZA

Most Searched